When you browse on this site, cookies collect data to enhance your experience and personalize the content and advertising you see.
Visit our Privacy Policy to learn more. By continuing to use the site, you agree to this use of cookies and data.
  • In Österreich
  • Länderverzeichnis
  • Für 7 Tage
  • Wassertemperatur
  • Satellitenkarten
  • Wetterkarte
  • News
  • Widgets
  • user-avatar
    Anmelden

    Stündliche Wetter Neuquén

    Heute, 10 Dezember, Montag

    Zeit Temperatur Niederschläge Wind Luftdruck Luftfeuchtigkeit
    00:00 +21°C° 0 mm 5 m/S 732 mmHg 38%
    01:00 +20°C° 0 mm 4 m/S 732 mmHg 40%
    02:00 +20°C° 0 mm 4 m/S 732 mmHg 41%
    03:00 +19°C° 0 mm 3 m/S 732 mmHg 43%
    04:00 +19°C° 0 mm 3 m/S 732 mmHg 44%
    05:00 +20°C° 0 mm 4 m/S 732 mmHg 41%
    06:00 +21°C° 0 mm 4 m/S 732 mmHg 38%
    07:00 +22°C° 0 mm 4 m/S 732 mmHg 34%
    08:00 +25°C° 0 mm 4 m/S 732 mmHg 31%
    09:00 +26°C° 0 mm 3 m/S 731 mmHg 28%
    10:00 +27°C° 0 mm 3 m/S 731 mmHg 25%
    11:00 +29°C° 0 mm 4 m/S 731 mmHg 23%
    12:00 +30°C° 0 mm 4 m/S 730 mmHg 20%
    13:00 +32°C° 0 mm 5 m/S 730 mmHg 18%
    14:00 +33°C° 0 mm 6 m/S 729 mmHg 16%
    15:00 +33°C° 0 mm 7 m/S 729 mmHg 14%
    16:00 +34°C° 0 mm 8 m/S 729 mmHg 12%
    17:00 +32°C° 0 mm 8 m/S 729 mmHg 14%
    18:00 +31°C° 0 mm 8 m/S 730 mmHg 15%
    19:00 +28°C° 0 mm 9 m/S 730 mmHg 17%
    20:00 +27°C° 0 mm 8 m/S 730 mmHg 19%
    21:00 +27°C° 0 mm 8 m/S 731 mmHg 21%
    22:00 +26°C° 0 mm 8 m/S 732 mmHg 24%
    23:00 +24°C° 0 mm 8 m/S 732 mmHg 27%

    Morgen, 11 Dezember, Dienstag

    Zeit Temperatur Niederschläge Wind Luftdruck Luftfeuchtigkeit
    00:00 +23°C° 0 mm 8 m/S 732 mmHg 31%
    01:00 +22°C° 0 mm 8 m/S 732 mmHg 34%
    02:00 +21°C° 0 mm 7 m/S 732 mmHg 38%
    03:00 +20°C° 0 mm 7 m/S 732 mmHg 41%
    04:00 +20°C° 0 mm 7 m/S 733 mmHg 44%
    05:00 +20°C° 0 mm 8 m/S 733 mmHg 42%
    06:00 +21°C° 0 mm 8 m/S 733 mmHg 39%
    07:00 +22°C° 0 mm 8 m/S 734 mmHg 37%
    08:00 +23°C° 0 mm 8 m/S 733 mmHg 33%
    09:00 +24°C° 0 mm 8 m/S 733 mmHg 30%
    10:00 +26°C° 0 mm 9 m/S 733 mmHg 27%
    11:00 +27°C° 0 mm 9 m/S 733 mmHg 24%
    12:00 +28°C° 0 mm 10 m/S 733 mmHg 20%
    13:00 +29°C° 0 mm 10 m/S 733 mmHg 17%
    14:00 +28°C° 0 mm 11 m/S 733 mmHg 16%
    15:00 +28°C° 0 mm 11 m/S 733 mmHg 16%
    16:00 +28°C° 0 mm 12 m/S 733 mmHg 15%
    17:00 +27°C° 0 mm 11 m/S 733 mmHg 18%
    18:00 +26°C° 0 mm 10 m/S 734 mmHg 21%
    19:00 +24°C° 0 mm 9 m/S 734 mmHg 25%
    20:00 +23°C° 0 mm 8 m/S 735 mmHg 27%
    21:00 +22°C° 0 mm 8 m/S 735 mmHg 29%
    22:00 +21°C° 0 mm 7 m/S 736 mmHg 32%
    23:00 +20°C° 0 mm 7 m/S 735 mmHg 34%

    übermorgen, 12 Dezember, Mittwoch

    Zeit Temperatur Niederschläge Wind Luftdruck Luftfeuchtigkeit
    00:00 +18°C° 0 mm 7 m/S 735 mmHg 36%
    01:00 +17°C° 0 mm 8 m/S 735 mmHg 39%
    02:00 +17°C° 0 mm 7 m/S 735 mmHg 39%
    03:00 +16°C° 0 mm 6 m/S 734 mmHg 40%
    04:00 +16°C° 0 mm 5 m/S 734 mmHg 41%
    05:00 +17°C° 0 mm 5 m/S 734 mmHg 36%
    06:00 +19°C° 0 mm 5 m/S 735 mmHg 32%
    07:00 +21°C° 0 mm 5 m/S 735 mmHg 28%
    08:00 +22°C° 0 mm 5 m/S 734 mmHg 27%
    09:00 +23°C° 0 mm 4 m/S 734 mmHg 25%
    10:00 +25°C° 0 mm 3 m/S 733 mmHg 24%
    11:00 +27°C° 0 mm 4 m/S 733 mmHg 22%
    12:00 +28°C° 0 mm 4 m/S 732 mmHg 21%
    13:00 +29°C° 0 mm 5 m/S 731 mmHg 19%
    14:00 +30°C° 0 mm 4 m/S 730 mmHg 18%
    15:00 +32°C° 0 mm 4 m/S 729 mmHg 17%
    16:00 +33°C° 0 mm 3 m/S 729 mmHg 16%
    17:00 +31°C° 0 mm 3 m/S 729 mmHg 17%
    18:00 +32°C° 0 mm 4 m/S 728 mmHg 17%
    19:00 +32°C° 0 mm 4 m/S 728 mmHg 18%
    20:00 +30°C° 0.3 mm 4 m/S 728 mmHg 21%
    21:00 +28°C° 0.3 mm 4 m/S 729 mmHg 24%
    22:00 +27°C° 0.3 mm 4 m/S 729 mmHg 27%
    23:00 +26°C° 0.5 mm 4 m/S 728 mmHg 30%

    13 Dezember, Donnerstag

    Zeit Temperatur Niederschläge Wind Luftdruck Luftfeuchtigkeit
    00:00 +25°C° 0.5 mm 5 m/S 728 mmHg 32%
    01:00 +23°C° 0.5 mm 6 m/S 728 mmHg 34%
    02:00 +23°C° 0.1 mm 5 m/S 728 mmHg 33%
    03:00 +22°C° 0.1 mm 5 m/S 728 mmHg 33%
    04:00 +21°C° 0.1 mm 4 m/S 728 mmHg 32%
    05:00 +22°C° 0 mm 5 m/S 728 mmHg 30%
    06:00 +23°C° 0 mm 6 m/S 728 mmHg 28%
    07:00 +24°C° 0 mm 7 m/S 729 mmHg 26%
    08:00 +26°C° 0 mm 7 m/S 729 mmHg 23%
    09:00 +27°C° 0 mm 7 m/S 729 mmHg 21%
    10:00 +28°C° 0 mm 7 m/S 729 mmHg 18%
    11:00 +29°C° 0 mm 7 m/S 728 mmHg 16%
    12:00 +30°C° 0 mm 7 m/S 727 mmHg 14%
    13:00 +32°C° 0 mm 7 m/S 727 mmHg 12%
    14:00 +32°C° 0 mm 7 m/S 727 mmHg 11%
    15:00 +32°C° 0 mm 7 m/S 727 mmHg 10%
    16:00 +32°C° 0 mm 8 m/S 727 mmHg 8%
    17:00 +31°C° 0 mm 9 m/S 727 mmHg 11%
    18:00 +29°C° 0 mm 10 m/S 728 mmHg 13%
    19:00 +27°C° 0 mm 11 m/S 729 mmHg 15%
    20:00 +26°C° 0 mm 11 m/S 729 mmHg 19%
    21:00 +23°C° 0 mm 11 m/S 730 mmHg 24%
    22:00 +21°C° 0 mm 12 m/S 731 mmHg 29%
    23:00 +19°C° 0 mm 11 m/S 731 mmHg 32%

    14 Dezember, Freitag

    Zeit Temperatur Niederschläge Wind Luftdruck Luftfeuchtigkeit
    00:00 +18°C° 0 mm 11 m/S 731 mmHg 35%
    01:00 +17°C° 0 mm 10 m/S 731 mmHg 38%
    02:00 +17°C° 0 mm 11 m/S 731 mmHg 39%
    03:00 +16°C° 0 mm 11 m/S 731 mmHg 40%
    04:00 +16°C° 0 mm 11 m/S 732 mmHg 41%
    05:00 +16°C° 0 mm 11 m/S 732 mmHg 38%
    06:00 +17°C° 0 mm 11 m/S 732 mmHg 35%
    07:00 +17°C° 0 mm 12 m/S 733 mmHg 32%
    08:00 +18°C° 0 mm 11 m/S 733 mmHg 28%
    09:00 +19°C° 0 mm 11 m/S 732 mmHg 23%
    10:00 +21°C° 0 mm 10 m/S 732 mmHg 19%
    11:00 +23°C° 0 mm 10 m/S 732 mmHg 16%
    12:00 +24°C° 0 mm 9 m/S 732 mmHg 14%
    13:00 +26°C° 0 mm 9 m/S 732 mmHg 11%
    14:00 +27°C° 0 mm 9 m/S 731 mmHg 10%
    15:00 +27°C° 0 mm 8 m/S 731 mmHg 9%
    16:00 +28°C° 0 mm 8 m/S 731 mmHg 9%
    17:00 +27°C° 0 mm 8 m/S 731 mmHg 10%
    18:00 +26°C° 0 mm 7 m/S 731 mmHg 11%
    19:00 +26°C° 0 mm 6 m/S 731 mmHg 13%
    20:00 +24°C° 0 mm 7 m/S 732 mmHg 15%
    21:00 +23°C° 0 mm 8 m/S 732 mmHg 18%
    22:00 +22°C° 0 mm 8 m/S 733 mmHg 21%
    23:00 +21°C° 0 mm 8 m/S 732 mmHg 23%

    15 Dezember, Samstag

    Zeit Temperatur Niederschläge Wind Luftdruck Luftfeuchtigkeit
    00:00 +20°C° 0 mm 7 m/S 732 mmHg 25%
    01:00 +18°C° 0 mm 7 m/S 732 mmHg 28%
    02:00 +19°C° 0 mm 6 m/S 732 mmHg 29%
    03:00 +17°C° 0 mm 5 m/S 732 mmHg 31%
    04:00 +17°C° 0 mm 5 m/S 732 mmHg 33%
    05:00 +19°C° 0 mm 5 m/S 732 mmHg 30%
    06:00 +21°C° 0 mm 5 m/S 732 mmHg 27%
    07:00 +22°C° 0 mm 5 m/S 733 mmHg 24%
    08:00 +25°C° 0 mm 5 m/S 732 mmHg 21%
    09:00 +26°C° 0 mm 5 m/S 732 mmHg 18%
    10:00 +28°C° 0 mm 5 m/S 732 mmHg 15%
    11:00 +29°C° 0 mm 5 m/S 731 mmHg 13%
    12:00 +32°C° 0 mm 6 m/S 730 mmHg 11%
    13:00 +33°C° 0 mm 6 m/S 730 mmHg 10%
    14:00 +34°C° 0 mm 6 m/S 729 mmHg 9%
    15:00 +35°C° 0 mm 6 m/S 729 mmHg 8%
    16:00 +36°C° 0 mm 6 m/S 728 mmHg 6%
    17:00 +34°C° 0 mm 7 m/S 728 mmHg 9%
    18:00 +33°C° 0 mm 8 m/S 729 mmHg 11%
    19:00 +32°C° 0 mm 10 m/S 729 mmHg 13%
    20:00 +29°C° 0 mm 10 m/S 729 mmHg 16%
    21:00 +28°C° 0 mm 10 m/S 730 mmHg 20%
    22:00 +26°C° 0 mm 10 m/S 730 mmHg 23%
    23:00 +24°C° 0 mm 9 m/S 730 mmHg 24%
    Mehr zeigen